Year,Month,Day,Hour,Minute,Value (Times are PST for temperature in C)
2016,09,30,00,00,6.70
2016,09,30,00,01,6.70
2016,09,30,00,02,6.70
2016,09,30,00,03,6.70
2016,09,30,00,04,6.70
2016,09,30,00,05,6.70
2016,09,30,00,06,6.70
2016,09,30,00,07,6.70
2016,09,30,00,08,6.70
2016,09,30,00,09,6.70
2016,09,30,00,10,6.60
2016,09,30,00,11,6.60
2016,09,30,00,12,6.60
2016,09,30,00,13,6.60
2016,09,30,00,14,6.60
2016,09,30,00,15,6.60
2016,09,30,00,16,6.50
2016,09,30,00,17,6.50
2016,09,30,00,18,6.50
2016,09,30,00,19,6.50
2016,09,30,00,20,6.50
2016,09,30,00,21,6.40
2016,09,30,00,22,6.40
2016,09,30,00,23,6.40
2016,09,30,00,24,6.40
2016,09,30,00,25,6.30
2016,09,30,00,26,6.30
2016,09,30,00,27,6.30
2016,09,30,00,28,6.20
2016,09,30,00,29,6.20
2016,09,30,00,30,6.20
2016,09,30,00,31,6.20
2016,09,30,00,32,6.20
2016,09,30,00,33,6.10
2016,09,30,00,34,6.10
2016,09,30,00,35,6.10
2016,09,30,00,36,6.10
2016,09,30,00,37,6.10
2016,09,30,00,38,6.00
2016,09,30,00,39,6.00
2016,09,30,00,40,6.00
2016,09,30,00,41,6.00
2016,09,30,00,42,5.90
2016,09,30,00,43,5.90
2016,09,30,00,44,5.90
2016,09,30,00,45,5.90
2016,09,30,00,46,5.90
2016,09,30,00,47,5.90
2016,09,30,00,48,6.00
2016,09,30,00,49,6.00
2016,09,30,00,50,6.00
2016,09,30,00,51,6.00
2016,09,30,00,52,6.00
2016,09,30,00,53,6.00
2016,09,30,00,54,6.00
2016,09,30,00,55,6.00
2016,09,30,00,56,5.90
2016,09,30,00,57,5.90
2016,09,30,00,58,5.90
2016,09,30,00,59,5.90
2016,09,30,01,00,5.80
2016,09,30,01,01,5.80
2016,09,30,01,02,5.80
2016,09,30,01,03,5.80
2016,09,30,01,04,5.80
2016,09,30,01,05,5.80
2016,09,30,01,06,5.70
2016,09,30,01,07,5.70
2016,09,30,01,08,5.70
2016,09,30,01,09,5.70
2016,09,30,01,10,5.70
2016,09,30,01,11,5.70
2016,09,30,01,12,5.70
2016,09,30,01,13,5.70
2016,09,30,01,14,5.70
2016,09,30,01,15,5.70
2016,09,30,01,16,5.70
2016,09,30,01,17,5.70
2016,09,30,01,18,5.70
2016,09,30,01,19,5.70
2016,09,30,01,20,5.70
2016,09,30,01,21,5.60
2016,09,30,01,22,5.60
2016,09,30,01,23,5.60
2016,09,30,01,24,5.60
2016,09,30,01,25,5.60
2016,09,30,01,26,5.60
2016,09,30,01,27,5.60
2016,09,30,01,28,5.60
2016,09,30,01,29,5.60
2016,09,30,01,30,5.60
2016,09,30,01,31,5.50
2016,09,30,01,32,5.50
2016,09,30,01,33,5.50
2016,09,30,01,34,5.50
2016,09,30,01,35,5.50
2016,09,30,01,36,5.50
2016,09,30,01,37,5.50
2016,09,30,01,38,5.50
2016,09,30,01,39,5.50
2016,09,30,01,40,5.40
2016,09,30,01,41,5.40
2016,09,30,01,42,5.40
2016,09,30,01,43,5.40
2016,09,30,01,44,5.40
2016,09,30,01,45,5.40
2016,09,30,01,46,5.30
2016,09,30,01,47,5.30
2016,09,30,01,48,5.30
2016,09,30,01,49,5.30
2016,09,30,01,50,5.30
2016,09,30,01,51,5.30
2016,09,30,01,52,5.30
2016,09,30,01,53,5.30
2016,09,30,01,54,5.30
2016,09,30,01,55,5.30
2016,09,30,01,56,5.30
2016,09,30,01,57,5.30
2016,09,30,01,58,5.30
2016,09,30,01,59,5.30
2016,09,30,02,00,5.30
2016,09,30,02,01,5.30
2016,09,30,02,02,5.30
2016,09,30,02,03,5.30
2016,09,30,02,04,5.30
2016,09,30,02,05,5.30
2016,09,30,02,06,5.30
2016,09,30,02,07,5.30
2016,09,30,02,08,5.30
2016,09,30,02,09,5.20
2016,09,30,02,10,5.20
2016,09,30,02,11,5.20
2016,09,30,02,12,5.20
2016,09,30,02,13,5.20
2016,09,30,02,14,5.20
2016,09,30,02,15,5.10
2016,09,30,02,16,5.10
2016,09,30,02,17,5.10
2016,09,30,02,18,5.10
2016,09,30,02,19,5.10
2016,09,30,02,20,5.10
2016,09,30,02,21,5.10
2016,09,30,02,22,5.00
2016,09,30,02,23,5.00
2016,09,30,02,24,5.00
2016,09,30,02,25,5.00
2016,09,30,02,26,5.00
2016,09,30,02,27,4.90
2016,09,30,02,28,4.90
2016,09,30,02,29,4.90
2016,09,30,02,30,4.90
2016,09,30,02,31,5.00
2016,09,30,02,32,5.00
2016,09,30,02,33,5.00
2016,09,30,02,34,5.00
2016,09,30,02,35,5.00
2016,09,30,02,36,5.00
2016,09,30,02,37,5.00
2016,09,30,02,38,5.00
2016,09,30,02,39,5.00
2016,09,30,02,40,5.00
2016,09,30,02,41,4.90
2016,09,30,02,42,4.90
2016,09,30,02,43,4.90
2016,09,30,02,44,4.90
2016,09,30,02,45,4.90
2016,09,30,02,46,4.80
2016,09,30,02,47,4.80
2016,09,30,02,48,4.80
2016,09,30,02,49,4.80
2016,09,30,02,50,4.80
2016,09,30,02,51,4.80
2016,09,30,02,52,4.80
2016,09,30,02,53,4.80
2016,09,30,02,54,4.70
2016,09,30,02,55,4.70
2016,09,30,02,56,4.70
2016,09,30,02,57,4.70
2016,09,30,02,58,4.70
2016,09,30,02,59,4.70
2016,09,30,03,00,4.70
2016,09,30,03,01,4.60
2016,09,30,03,02,4.60
2016,09,30,03,03,4.60
2016,09,30,03,04,4.60
2016,09,30,03,05,4.60
2016,09,30,03,06,4.60
2016,09,30,03,07,4.60
2016,09,30,03,08,4.60
2016,09,30,03,09,4.60
2016,09,30,03,10,4.60
2016,09,30,03,11,4.60
2016,09,30,03,12,4.60
2016,09,30,03,13,4.60
2016,09,30,03,14,4.50
2016,09,30,03,15,4.50
2016,09,30,03,16,4.50
2016,09,30,03,17,4.50
2016,09,30,03,18,4.50
2016,09,30,03,19,4.50
2016,09,30,03,20,4.40
2016,09,30,03,21,4.40
2016,09,30,03,22,4.40
2016,09,30,03,23,4.40
2016,09,30,03,24,4.40
2016,09,30,03,25,4.30
2016,09,30,03,26,4.30
2016,09,30,03,27,4.30
2016,09,30,03,28,4.30
2016,09,30,03,29,4.30
2016,09,30,03,30,4.30
2016,09,30,03,31,4.30
2016,09,30,03,32,4.30
2016,09,30,03,33,4.30
2016,09,30,03,34,4.30
2016,09,30,03,35,4.30
2016,09,30,03,36,4.30
2016,09,30,03,37,4.30
2016,09,30,03,38,4.20
2016,09,30,03,39,4.20
2016,09,30,03,40,4.20
2016,09,30,03,41,4.20
2016,09,30,03,42,4.20
2016,09,30,03,43,4.20
2016,09,30,03,44,4.20
2016,09,30,03,45,4.20
2016,09,30,03,46,4.20
2016,09,30,03,47,4.20
2016,09,30,03,48,4.20
2016,09,30,03,49,4.20
2016,09,30,03,50,4.20
2016,09,30,03,51,4.10
2016,09,30,03,52,4.10
2016,09,30,03,53,4.10
2016,09,30,03,54,4.10
2016,09,30,03,55,4.10
2016,09,30,03,56,4.10
2016,09,30,03,57,4.10
2016,09,30,03,58,4.10
2016,09,30,03,59,4.10
2016,09,30,04,00,4.10
2016,09,30,04,01,4.10
2016,09,30,04,02,4.10
2016,09,30,04,03,4.10
2016,09,30,04,04,4.10
2016,09,30,04,05,4.10
2016,09,30,04,06,4.10
2016,09,30,04,07,4.10
2016,09,30,04,08,4.10
2016,09,30,04,09,4.10
2016,09,30,04,10,4.00
2016,09,30,04,11,4.00
2016,09,30,04,12,4.00
2016,09,30,04,13,4.00
2016,09,30,04,14,4.00
2016,09,30,04,15,4.00
2016,09,30,04,16,4.00
2016,09,30,04,17,4.00
2016,09,30,04,18,4.00
2016,09,30,04,19,4.10
2016,09,30,04,20,4.10
2016,09,30,04,21,4.00
2016,09,30,04,22,4.00
2016,09,30,04,23,4.00
2016,09,30,04,24,4.00
2016,09,30,04,25,4.00
2016,09,30,04,26,4.00
2016,09,30,04,27,4.10
2016,09,30,04,28,4.10
2016,09,30,04,29,4.10
2016,09,30,04,30,4.00
2016,09,30,04,31,4.00
2016,09,30,04,32,4.00
2016,09,30,04,33,4.00
2016,09,30,04,34,3.90
2016,09,30,04,35,3.90
2016,09,30,04,36,3.90
2016,09,30,04,37,3.90
2016,09,30,04,38,3.90
2016,09,30,04,39,3.90
2016,09,30,04,40,3.90
2016,09,30,04,41,3.90
2016,09,30,04,42,4.00
2016,09,30,04,43,4.00
2016,09,30,04,44,4.00
2016,09,30,04,45,4.00
2016,09,30,04,46,4.00
2016,09,30,04,47,4.10
2016,09,30,04,48,4.10
2016,09,30,04,49,4.10
2016,09,30,04,50,4.10
2016,09,30,04,51,4.10
2016,09,30,04,52,4.20
2016,09,30,04,53,4.20
2016,09,30,04,54,4.20
2016,09,30,04,55,4.20
2016,09,30,04,56,4.20
2016,09,30,04,57,4.20
2016,09,30,04,58,4.20
2016,09,30,04,59,4.10
2016,09,30,05,00,4.10
2016,09,30,05,01,4.10
2016,09,30,05,02,4.00
2016,09,30,05,03,4.00
2016,09,30,05,04,3.90
2016,09,30,05,05,3.90
2016,09,30,05,06,3.90
2016,09,30,05,07,3.80
2016,09,30,05,08,3.80
2016,09,30,05,09,3.80
2016,09,30,05,10,3.80
2016,09,30,05,11,3.80
2016,09,30,05,12,3.80
2016,09,30,05,13,3.80
2016,09,30,05,14,3.70
2016,09,30,05,15,3.70
2016,09,30,05,16,3.70
2016,09,30,05,17,3.70
2016,09,30,05,18,3.70
2016,09,30,05,19,3.70
2016,09,30,05,20,3.60
2016,09,30,05,21,3.60
2016,09,30,05,22,3.60
2016,09,30,05,23,3.60
2016,09,30,05,24,3.60
2016,09,30,05,25,3.60
2016,09,30,05,26,3.60
2016,09,30,05,27,3.60
2016,09,30,05,28,3.60
2016,09,30,05,29,3.60
2016,09,30,05,30,3.60
2016,09,30,05,31,3.60
2016,09,30,05,32,3.60
2016,09,30,05,33,3.60
2016,09,30,05,34,3.60
2016,09,30,05,35,3.60
2016,09,30,05,36,3.60
2016,09,30,05,37,3.60
2016,09,30,05,38,3.60
2016,09,30,05,39,3.60
2016,09,30,05,40,3.60
2016,09,30,05,41,3.60
2016,09,30,05,42,3.50
2016,09,30,05,43,3.50
2016,09,30,05,44,3.50
2016,09,30,05,45,3.40
2016,09,30,05,46,3.40
2016,09,30,05,47,3.40
2016,09,30,05,48,3.40
2016,09,30,05,49,3.40
2016,09,30,05,50,3.40
2016,09,30,05,51,3.40
2016,09,30,05,52,3.40
2016,09,30,05,53,3.40
2016,09,30,05,54,3.40
2016,09,30,05,55,3.40
2016,09,30,05,56,3.40
2016,09,30,05,57,3.40
2016,09,30,05,58,3.40
2016,09,30,05,59,3.30
2016,09,30,06,00,3.30
2016,09,30,06,01,3.30
2016,09,30,06,02,3.30
2016,09,30,06,03,3.30
2016,09,30,06,04,3.30
2016,09,30,06,05,3.30
2016,09,30,06,06,3.30
2016,09,30,06,07,3.30
2016,09,30,06,08,3.30
2016,09,30,06,09,3.30
2016,09,30,06,10,3.30
2016,09,30,06,11,3.30
2016,09,30,06,12,3.30
2016,09,30,06,13,3.30
2016,09,30,06,14,3.30
2016,09,30,06,15,3.30
2016,09,30,06,16,3.30
2016,09,30,06,17,3.30
2016,09,30,06,18,3.30
2016,09,30,06,19,3.30
2016,09,30,06,20,3.30
2016,09,30,06,21,3.30
2016,09,30,06,22,3.30
2016,09,30,06,23,3.30
2016,09,30,06,24,3.30
2016,09,30,06,25,3.30
2016,09,30,06,26,3.30
2016,09,30,06,27,3.30
2016,09,30,06,28,3.30
2016,09,30,06,29,3.30
2016,09,30,06,30,3.30
2016,09,30,06,31,3.30
2016,09,30,06,32,3.30
2016,09,30,06,33,3.30
2016,09,30,06,34,3.30
2016,09,30,06,35,3.30
2016,09,30,06,36,3.30
2016,09,30,06,37,3.30
2016,09,30,06,38,3.30
2016,09,30,06,39,3.30
2016,09,30,06,40,3.30
2016,09,30,06,41,3.30
2016,09,30,06,42,3.30
2016,09,30,06,43,3.30
2016,09,30,06,44,3.30
2016,09,30,06,45,3.30
2016,09,30,06,46,3.30
2016,09,30,06,47,3.30
2016,09,30,06,48,3.30
2016,09,30,06,49,3.40
2016,09,30,06,50,3.40
2016,09,30,06,51,3.40
2016,09,30,06,52,3.40
2016,09,30,06,53,3.40
2016,09,30,06,54,3.40
2016,09,30,06,55,3.40
2016,09,30,06,56,3.30
2016,09,30,06,57,3.30
2016,09,30,06,58,3.30
2016,09,30,06,59,3.30
2016,09,30,07,00,3.20
2016,09,30,07,01,3.20
2016,09,30,07,02,3.20
2016,09,30,07,03,3.20
2016,09,30,07,04,3.20
2016,09,30,07,05,3.10
2016,09,30,07,06,3.10
2016,09,30,07,07,3.10
2016,09,30,07,08,3.10
2016,09,30,07,09,3.10
2016,09,30,07,10,3.10
2016,09,30,07,11,3.10
2016,09,30,07,12,3.10
2016,09,30,07,13,3.10
2016,09,30,07,14,3.10
2016,09,30,07,15,3.10
2016,09,30,07,16,3.10
2016,09,30,07,17,3.10
2016,09,30,07,18,3.10
2016,09,30,07,19,3.10
2016,09,30,07,20,3.00
2016,09,30,07,21,3.00
2016,09,30,07,22,3.00
2016,09,30,07,23,3.00
2016,09,30,07,24,3.00
2016,09,30,07,25,3.00
2016,09,30,07,26,3.00
2016,09,30,07,27,3.00
2016,09,30,07,28,3.00
2016,09,30,07,29,3.00
2016,09,30,07,30,3.10
2016,09,30,07,31,3.10
2016,09,30,07,32,3.10
2016,09,30,07,33,3.10
2016,09,30,07,34,3.10
2016,09,30,07,35,3.10
2016,09,30,07,36,3.00
2016,09,30,07,37,3.10
2016,09,30,07,38,3.10
2016,09,30,07,39,3.10
2016,09,30,07,40,3.10
2016,09,30,07,41,3.10
2016,09,30,07,42,3.10
2016,09,30,07,43,3.10
2016,09,30,07,44,3.10
2016,09,30,07,45,3.10
2016,09,30,07,46,3.20
2016,09,30,07,47,3.20
2016,09,30,07,48,3.20
2016,09,30,07,49,3.20
2016,09,30,07,50,3.20
2016,09,30,07,51,3.20
2016,09,30,07,52,3.30
2016,09,30,07,53,3.30
2016,09,30,07,54,3.30
2016,09,30,07,55,3.30
2016,09,30,07,56,3.40
2016,09,30,07,57,3.40
2016,09,30,07,58,3.50
2016,09,30,07,59,3.50
2016,09,30,08,00,3.60
2016,09,30,08,01,3.70
2016,09,30,08,02,3.70
2016,09,30,08,03,3.80
2016,09,30,08,04,3.80
2016,09,30,08,05,3.90
2016,09,30,08,06,3.90
2016,09,30,08,07,4.00
2016,09,30,08,08,4.10
2016,09,30,08,09,4.10
2016,09,30,08,10,4.20
2016,09,30,08,11,4.20
2016,09,30,08,12,4.30
2016,09,30,08,13,4.30
2016,09,30,08,14,4.40
2016,09,30,08,15,4.40
2016,09,30,08,16,4.40
2016,09,30,08,17,4.50
2016,09,30,08,18,4.50
2016,09,30,08,19,4.60
2016,09,30,08,20,4.60
2016,09,30,08,21,4.70
2016,09,30,08,22,4.70
2016,09,30,08,23,4.80
2016,09,30,08,24,4.90
2016,09,30,08,25,4.90
2016,09,30,08,26,5.00
2016,09,30,08,27,5.00
2016,09,30,08,28,5.10
2016,09,30,08,29,5.10
2016,09,30,08,30,5.20
2016,09,30,08,31,5.20
2016,09,30,08,32,5.20
2016,09,30,08,33,5.20
2016,09,30,08,34,5.30
2016,09,30,08,35,5.30
2016,09,30,08,36,5.30
2016,09,30,08,37,5.40
2016,09,30,08,38,5.40
2016,09,30,08,39,5.50
2016,09,30,08,40,5.50
2016,09,30,08,41,5.60
2016,09,30,08,42,5.60
2016,09,30,08,43,5.70
2016,09,30,08,44,5.70
2016,09,30,08,45,5.80
2016,09,30,08,46,5.80
2016,09,30,08,47,5.90
2016,09,30,08,48,6.00
2016,09,30,08,49,6.00
2016,09,30,08,50,6.10
2016,09,30,08,51,6.20
2016,09,30,08,52,6.20
2016,09,30,08,53,6.30
2016,09,30,08,54,6.40
2016,09,30,08,55,6.60
2016,09,30,08,56,6.70
2016,09,30,08,57,6.80
2016,09,30,08,58,7.00
2016,09,30,08,59,7.10
2016,09,30,09,00,7.20
2016,09,30,09,01,7.30
2016,09,30,09,02,7.40
2016,09,30,09,03,7.50
2016,09,30,09,04,7.60
2016,09,30,09,05,7.80
2016,09,30,09,06,7.90
2016,09,30,09,07,8.00
2016,09,30,09,08,8.20
2016,09,30,09,09,8.30
2016,09,30,09,10,8.40
2016,09,30,09,11,8.50
2016,09,30,09,12,8.60
2016,09,30,09,13,8.70
2016,09,30,09,14,8.80
2016,09,30,09,15,8.80
2016,09,30,09,16,8.90
2016,09,30,09,17,9.00
2016,09,30,09,18,9.00
2016,09,30,09,19,9.10
2016,09,30,09,20,9.10
2016,09,30,09,21,9.10
2016,09,30,09,22,9.20
2016,09,30,09,23,9.30
2016,09,30,09,24,9.40
2016,09,30,09,25,9.50
2016,09,30,09,26,9.50
2016,09,30,09,27,9.60
2016,09,30,09,28,9.70
2016,09,30,09,29,9.80
2016,09,30,09,30,9.90
2016,09,30,09,31,9.90
2016,09,30,09,32,10.00
2016,09,30,09,33,10.10
2016,09,30,09,34,10.20
2016,09,30,09,35,10.20
2016,09,30,09,36,10.30
2016,09,30,09,37,10.40
2016,09,30,09,38,10.50
2016,09,30,09,39,10.60
2016,09,30,09,40,10.70
2016,09,30,09,41,10.80
2016,09,30,09,42,10.90
2016,09,30,09,43,11.00
2016,09,30,09,44,11.00
2016,09,30,09,45,11.00
2016,09,30,09,46,11.00
2016,09,30,09,47,10.90
2016,09,30,09,48,10.90
2016,09,30,09,49,10.90
2016,09,30,09,50,10.90
2016,09,30,09,51,10.90
2016,09,30,09,52,10.90
2016,09,30,09,53,10.90
2016,09,30,09,54,10.90
2016,09,30,09,55,10.90
2016,09,30,09,56,11.00
2016,09,30,09,57,11.00
2016,09,30,09,58,11.00
2016,09,30,09,59,11.00
2016,09,30,10,00,11.00
2016,09,30,10,01,11.10
2016,09,30,10,02,11.10
2016,09,30,10,03,11.10
2016,09,30,10,04,11.20
2016,09,30,10,05,11.20
2016,09,30,10,06,11.20
2016,09,30,10,07,11.30
2016,09,30,10,08,11.30
2016,09,30,10,09,11.40
2016,09,30,10,10,11.50
2016,09,30,10,11,11.50
2016,09,30,10,12,11.60
2016,09,30,10,13,11.60
2016,09,30,10,14,11.60
2016,09,30,10,15,11.70
2016,09,30,10,16,11.70
2016,09,30,10,17,11.80
2016,09,30,10,18,11.80
2016,09,30,10,19,11.90
2016,09,30,10,20,12.00
2016,09,30,10,21,12.00
2016,09,30,10,22,12.00
2016,09,30,10,23,12.00
2016,09,30,10,24,12.00
2016,09,30,10,25,11.90
2016,09,30,10,26,11.90
2016,09,30,10,27,11.90
2016,09,30,10,28,11.90
2016,09,30,10,29,11.90
2016,09,30,10,30,11.90
2016,09,30,10,31,11.90
2016,09,30,10,32,11.90
2016,09,30,10,33,11.90
2016,09,30,10,34,11.90
2016,09,30,10,35,11.90
2016,09,30,10,36,11.90
2016,09,30,10,37,12.00
2016,09,30,10,38,12.00
2016,09,30,10,39,12.10
2016,09,30,10,40,12.20
2016,09,30,10,41,12.20
2016,09,30,10,42,12.20
2016,09,30,10,43,12.20
2016,09,30,10,44,12.30
2016,09,30,10,45,12.30
2016,09,30,10,46,12.40
2016,09,30,10,47,12.40
2016,09,30,10,48,12.40
2016,09,30,10,49,12.40
2016,09,30,10,50,12.40
2016,09,30,10,51,12.40
2016,09,30,10,52,12.40
2016,09,30,10,53,12.50
2016,09,30,10,54,12.50
2016,09,30,10,55,12.50
2016,09,30,10,56,12.50
2016,09,30,10,57,12.40
2016,09,30,10,58,12.40
2016,09,30,10,59,12.40
2016,09,30,11,00,12.40
2016,09,30,11,01,12.40
2016,09,30,11,02,12.40
2016,09,30,11,03,12.40
2016,09,30,11,04,12.50
2016,09,30,11,05,12.50
2016,09,30,11,06,12.60
2016,09,30,11,07,12.60
2016,09,30,11,08,12.60
2016,09,30,11,09,12.60
2016,09,30,11,10,12.60
2016,09,30,11,11,12.60
2016,09,30,11,12,12.60
2016,09,30,11,13,12.60
2016,09,30,11,14,12.60
2016,09,30,11,15,12.60
2016,09,30,11,16,12.70
2016,09,30,11,17,12.70
2016,09,30,11,18,12.70
2016,09,30,11,19,12.80
2016,09,30,11,20,12.80
2016,09,30,11,21,12.90
2016,09,30,11,22,12.90
2016,09,30,11,23,12.90
2016,09,30,11,24,12.90
2016,09,30,11,25,12.90
2016,09,30,11,26,12.90
2016,09,30,11,27,13.00
2016,09,30,11,28,13.10
2016,09,30,11,29,13.10
2016,09,30,11,30,13.10
2016,09,30,11,31,13.10
2016,09,30,11,32,13.20
2016,09,30,11,33,13.20
2016,09,30,11,34,13.30
2016,09,30,11,35,13.30
2016,09,30,11,36,13.30
2016,09,30,11,37,13.30
2016,09,30,11,38,13.20
2016,09,30,11,39,13.20
2016,09,30,11,40,13.20
2016,09,30,11,41,13.20
2016,09,30,11,42,13.20
2016,09,30,11,43,13.10
2016,09,30,11,44,13.10
2016,09,30,11,45,13.10
2016,09,30,11,46,13.10
2016,09,30,11,47,13.10
2016,09,30,11,48,13.10
2016,09,30,11,49,13.10
2016,09,30,11,50,13.10
2016,09,30,11,51,13.00
2016,09,30,11,52,13.00
2016,09,30,11,53,12.90
2016,09,30,11,54,13.00
2016,09,30,11,55,13.00
2016,09,30,11,56,13.00
2016,09,30,11,57,13.00
2016,09,30,11,58,13.00
2016,09,30,11,59,12.90
2016,09,30,12,00,12.80
2016,09,30,12,01,12.70
2016,09,30,12,02,12.70
2016,09,30,12,03,12.60
2016,09,30,12,04,12.60
2016,09,30,12,05,12.60
2016,09,30,12,06,12.70
2016,09,30,12,07,12.70
2016,09,30,12,08,12.80
2016,09,30,12,09,12.80
2016,09,30,12,10,12.90
2016,09,30,12,11,12.90
2016,09,30,12,12,13.00
2016,09,30,12,13,13.00
2016,09,30,12,14,13.10
2016,09,30,12,15,13.10
2016,09,30,12,16,13.10
2016,09,30,12,17,13.10
2016,09,30,12,18,13.10
2016,09,30,12,19,13.10
2016,09,30,12,20,13.10
2016,09,30,12,21,13.20
2016,09,30,12,22,13.20
2016,09,30,12,23,13.20
2016,09,30,12,24,13.20
2016,09,30,12,25,13.20
2016,09,30,12,26,13.20
2016,09,30,12,27,13.10
2016,09,30,12,28,13.10
2016,09,30,12,29,13.10
2016,09,30,12,30,13.10
2016,09,30,12,31,13.10
2016,09,30,12,32,13.20
2016,09,30,12,33,13.20
2016,09,30,12,34,13.20
2016,09,30,12,35,13.20
2016,09,30,12,36,13.20
2016,09,30,12,37,13.20
2016,09,30,12,38,13.20
2016,09,30,12,39,13.20
2016,09,30,12,40,13.20
2016,09,30,12,41,13.20
2016,09,30,12,42,13.20
2016,09,30,12,43,13.20
2016,09,30,12,44,13.20
2016,09,30,12,45,13.10
2016,09,30,12,46,13.10
2016,09,30,12,47,13.10
2016,09,30,12,48,13.10
2016,09,30,12,49,13.10
2016,09,30,12,50,13.20
2016,09,30,12,51,13.20
2016,09,30,12,52,13.20
2016,09,30,12,53,13.20
2016,09,30,12,54,13.20
2016,09,30,12,55,13.30
2016,09,30,12,56,13.30
2016,09,30,12,57,13.30
2016,09,30,12,58,13.30
2016,09,30,12,59,13.30
2016,09,30,13,00,13.40
2016,09,30,13,01,13.50
2016,09,30,13,02,13.50
2016,09,30,13,03,13.60
2016,09,30,13,04,13.60
2016,09,30,13,05,13.60
2016,09,30,13,06,13.60
2016,09,30,13,07,13.60
2016,09,30,13,08,13.60
2016,09,30,13,09,13.60
2016,09,30,13,10,13.50
2016,09,30,13,11,13.50
2016,09,30,13,12,13.40
2016,09,30,13,13,13.40
2016,09,30,13,14,13.40
2016,09,30,13,15,13.40
2016,09,30,13,16,13.50
2016,09,30,13,17,13.50
2016,09,30,13,18,13.60
2016,09,30,13,19,13.60
2016,09,30,13,20,13.60
2016,09,30,13,21,13.60
2016,09,30,13,22,13.60
2016,09,30,13,23,13.70
2016,09,30,13,24,13.70
2016,09,30,13,25,13.80
2016,09,30,13,26,13.80
2016,09,30,13,27,13.80
2016,09,30,13,28,13.70
2016,09,30,13,29,13.70
2016,09,30,13,30,13.70
2016,09,30,13,31,13.70
2016,09,30,13,32,13.70
2016,09,30,13,33,13.60
2016,09,30,13,34,13.50
2016,09,30,13,35,13.50
2016,09,30,13,36,13.50
2016,09,30,13,37,13.50
2016,09,30,13,38,13.40
2016,09,30,13,39,13.40
2016,09,30,13,40,13.50
2016,09,30,13,41,13.50
2016,09,30,13,42,13.60
2016,09,30,13,43,13.60
2016,09,30,13,44,13.60
2016,09,30,13,45,13.60
2016,09,30,13,46,13.50
2016,09,30,13,47,13.50
2016,09,30,13,48,13.40
2016,09,30,13,49,13.40
2016,09,30,13,50,13.40
2016,09,30,13,51,13.40
2016,09,30,13,52,13.40
2016,09,30,13,53,13.40
2016,09,30,13,54,13.40
2016,09,30,13,55,13.40
2016,09,30,13,56,13.40
2016,09,30,13,57,13.50
2016,09,30,13,58,13.60
2016,09,30,13,59,13.70
2016,09,30,14,00,13.80
2016,09,30,14,01,13.80
2016,09,30,14,02,13.90
2016,09,30,14,03,13.90
2016,09,30,14,04,13.90
2016,09,30,14,05,14.00
2016,09,30,14,06,13.90
2016,09,30,14,07,13.90
2016,09,30,14,08,13.90
2016,09,30,14,09,13.80
2016,09,30,14,10,13.80
2016,09,30,14,11,13.80
2016,09,30,14,12,13.70
2016,09,30,14,13,13.60
2016,09,30,14,14,13.60
2016,09,30,14,15,13.60
2016,09,30,14,16,13.60
2016,09,30,14,17,13.60
2016,09,30,14,18,13.60
2016,09,30,14,19,13.60
2016,09,30,14,20,13.60
2016,09,30,14,21,13.60
2016,09,30,14,22,13.60
2016,09,30,14,23,13.60
2016,09,30,14,24,13.60
2016,09,30,14,25,13.60
2016,09,30,14,26,13.70
2016,09,30,14,27,13.70
2016,09,30,14,28,13.80
2016,09,30,14,29,13.80
2016,09,30,14,30,13.80
2016,09,30,14,31,13.90
2016,09,30,14,32,13.90
2016,09,30,14,33,13.90
2016,09,30,14,34,13.80
2016,09,30,14,35,13.80
2016,09,30,14,36,13.80
2016,09,30,14,37,13.80
2016,09,30,14,38,13.90
2016,09,30,14,39,13.90
2016,09,30,14,40,13.90
2016,09,30,14,41,14.00
2016,09,30,14,42,14.00
2016,09,30,14,43,14.10
2016,09,30,14,44,14.00
2016,09,30,14,45,14.00
2016,09,30,14,46,13.90
2016,09,30,14,47,13.90
2016,09,30,14,48,13.90
2016,09,30,14,49,14.00
2016,09,30,14,50,14.00
2016,09,30,14,51,14.00
2016,09,30,14,52,13.90
2016,09,30,14,53,13.90
2016,09,30,14,54,13.90
2016,09,30,14,55,13.90
2016,09,30,14,56,13.80
2016,09,30,14,57,13.80
2016,09,30,14,58,13.80
2016,09,30,14,59,13.80
2016,09,30,15,00,13.70
2016,09,30,15,01,13.70
2016,09,30,15,02,13.70
2016,09,30,15,03,13.70
2016,09,30,15,04,13.70
2016,09,30,15,05,13.70
2016,09,30,15,06,13.80
2016,09,30,15,07,13.80
2016,09,30,15,08,13.80
2016,09,30,15,09,13.80
2016,09,30,15,10,13.80
2016,09,30,15,11,13.80
2016,09,30,15,12,13.80
2016,09,30,15,13,13.80
2016,09,30,15,14,13.80
2016,09,30,15,15,13.80
2016,09,30,15,16,13.80
2016,09,30,15,17,13.80
2016,09,30,15,18,13.90
2016,09,30,15,19,13.90
2016,09,30,15,20,14.00
2016,09,30,15,21,14.10
2016,09,30,15,22,14.10
2016,09,30,15,23,14.10
2016,09,30,15,24,14.10
2016,09,30,15,25,14.10
2016,09,30,15,26,14.20
2016,09,30,15,27,14.20
2016,09,30,15,28,14.20
2016,09,30,15,29,14.20
2016,09,30,15,30,14.20
2016,09,30,15,31,14.30
2016,09,30,15,32,14.30
2016,09,30,15,33,14.30
2016,09,30,15,34,14.30
2016,09,30,15,35,14.30
2016,09,30,15,36,14.30
2016,09,30,15,37,14.30
2016,09,30,15,38,14.30
2016,09,30,15,39,14.30
2016,09,30,15,40,14.30
2016,09,30,15,41,14.20
2016,09,30,15,42,14.20
2016,09,30,15,43,14.20
2016,09,30,15,44,14.20
2016,09,30,15,45,14.30
2016,09,30,15,46,14.30
2016,09,30,15,47,14.30
2016,09,30,15,48,14.30
2016,09,30,15,49,14.30
2016,09,30,15,50,14.30
2016,09,30,15,51,14.40
2016,09,30,15,52,14.40
2016,09,30,15,53,14.40
2016,09,30,15,54,14.30
2016,09,30,15,55,14.30
2016,09,30,15,56,14.30
2016,09,30,15,57,14.20
2016,09,30,15,58,14.30
2016,09,30,15,59,14.30
2016,09,30,16,00,14.30
2016,09,30,16,01,14.30
2016,09,30,16,02,14.30
2016,09,30,16,03,14.40
2016,09,30,16,04,14.40
2016,09,30,16,05,14.40
2016,09,30,16,06,14.40
2016,09,30,16,07,14.40
2016,09,30,16,08,14.40
2016,09,30,16,09,14.40
2016,09,30,16,10,14.40
2016,09,30,16,11,14.40
2016,09,30,16,12,14.40
2016,09,30,16,13,14.40
2016,09,30,16,14,14.50
2016,09,30,16,15,14.50
2016,09,30,16,16,14.50
2016,09,30,16,17,14.50
2016,09,30,16,18,14.50
2016,09,30,16,19,14.50
2016,09,30,16,20,14.50
2016,09,30,16,21,14.50
2016,09,30,16,22,14.40
2016,09,30,16,23,14.40
2016,09,30,16,24,14.30
2016,09,30,16,25,14.30
2016,09,30,16,26,14.30
2016,09,30,16,27,14.30
2016,09,30,16,28,14.30
2016,09,30,16,29,14.30
2016,09,30,16,30,14.30
2016,09,30,16,31,14.40
2016,09,30,16,32,14.40
2016,09,30,16,33,14.40
2016,09,30,16,34,14.40
2016,09,30,16,35,14.50
2016,09,30,16,36,14.50
2016,09,30,16,37,14.60
2016,09,30,16,38,14.60
2016,09,30,16,39,14.60
2016,09,30,16,40,14.70
2016,09,30,16,41,14.70
2016,09,30,16,42,14.70
2016,09,30,16,43,14.70
2016,09,30,16,44,14.70
2016,09,30,16,45,14.80
2016,09,30,16,46,14.80
2016,09,30,16,47,14.80
2016,09,30,16,48,14.90
2016,09,30,16,49,14.90
2016,09,30,16,50,15.00
2016,09,30,16,51,15.00
2016,09,30,16,52,15.10
2016,09,30,16,53,15.10
2016,09,30,16,54,15.10
2016,09,30,16,55,15.10
2016,09,30,16,56,15.10
2016,09,30,16,57,15.10
2016,09,30,16,58,15.10
2016,09,30,16,59,15.10
2016,09,30,17,00,15.10
2016,09,30,17,01,15.00
2016,09,30,17,02,14.90
2016,09,30,17,03,14.90
2016,09,30,17,04,14.90
2016,09,30,17,05,14.80
2016,09,30,17,06,14.80
2016,09,30,17,07,14.80
2016,09,30,17,08,14.70
2016,09,30,17,09,14.70
2016,09,30,17,10,14.70
2016,09,30,17,11,14.70
2016,09,30,17,12,14.70
2016,09,30,17,13,14.70
2016,09,30,17,14,14.70
2016,09,30,17,15,14.70
2016,09,30,17,16,14.70
2016,09,30,17,17,14.70
2016,09,30,17,18,14.70
2016,09,30,17,19,14.70
2016,09,30,17,20,14.70
2016,09,30,17,21,14.70
2016,09,30,17,22,14.70
2016,09,30,17,23,14.70
2016,09,30,17,24,14.80
2016,09,30,17,25,14.80
2016,09,30,17,26,14.80
2016,09,30,17,27,14.80
2016,09,30,17,28,14.80
2016,09,30,17,29,14.80
2016,09,30,17,30,14.80
2016,09,30,17,31,14.80
2016,09,30,17,32,14.80
2016,09,30,17,33,14.70
2016,09,30,17,34,14.70
2016,09,30,17,35,14.70
2016,09,30,17,36,14.60
2016,09,30,17,37,14.60
2016,09,30,17,38,14.60
2016,09,30,17,39,14.60
2016,09,30,17,40,14.60
2016,09,30,17,41,14.50
2016,09,30,17,42,14.50
2016,09,30,17,43,14.50
2016,09,30,17,44,14.50